Regional Weather Roundup
Issued by NWS

Home | Current Version | Previous Version | Graphics & Text | Print | Product List | Glossary On
Versions: 1 2 3 4 5 6 7 8 9 10 11 12 13 14 15 16 17 18 19 20 21 22 23 24 25 26 27 28 29 30 31 32 33 34 35 36 37 38 39 40 41 42 43 44 45 46 47 48 49 50
000
ASUS43 KFSD 182202
RWRSD

WEATHER ROUNDUP FOR SOUTH DAKOTA
NATIONAL WEATHER SERVICE SIOUX FALLS SD
400 PM CST WED JAN 18 2017

NOTE: "FAIR" INDICATES FEW OR NO CLOUDS BELOW 12,000 FEET WITH NO
SIGNIFICANT WEATHER AND/OR OBSTRUCTIONS TO VISIBILITY.


SDZ001>005-009-010-012>017-182300-
NORTHWEST AND NORTH CENTRAL SOUTH DAKOTA

CITY           SKY/WX    TMP DP  RH WIND       PRES   REMARKS
BUFFALO          N/A     40  26  57 W6        29.58S
FAITH            N/A     29  24  82 S14       29.65F WCI  18
MOBRIDGE       CLOUDY    28  20  71 SE12      29.66F WCI  18
$$

SDZ012>016-024>037-041>051-057-063-072>074-182300-
SOUTHWEST AND SOUTH CENTRAL SOUTH DAKOTA

CITY           SKY/WX    TMP DP  RH WIND       PRES   REMARKS
RAPID CTY ARPT CLOUDY    38  27  64 CALM      29.64F
PIERRE         CLOUDY    33  23  66 CALM      29.70F
CUSTER         SUNNY     61  17  18 VRB3      29.70F
ELLSWORTH AFB  CLOUDY    43  28  56 CALM      29.63F
PHILIP         CLOUDY    38  26  62 CALM      29.68F
PINE RIDGE     CLOUDY    40  27  59 S7        29.71F
SPEARFISH      FAIR      52  32  46 CALM      29.65F
WINNER         FAIR      54  26  34 SW8       29.72S
$$

SDZ004>011-016>023-039-040-182300-
NORTHEAST SOUTH DAKOTA

CITY           SKY/WX    TMP DP  RH WIND       PRES   REMARKS
ABERDEEN       CLOUDY    32  22  66 S8        29.73F WCI  25
WATERTOWN      CLOUDY    34  28  79 S6        29.75F WCI  29
BROOKINGS      SUNNY     38  31  76 S10       29.77F
SISSETON         N/A     41  30  65 CALM      29.72S
$$

SDZ017-020-022-023-036>040-048>070-182300-
SOUTHEAST SOUTH DAKOTA

CITY           SKY/WX    TMP DP  RH WIND       PRES   REMARKS
SIOUX FALLS    SUNNY     45  38  76 S8        29.81S
HURON          SUNNY     38  29  70 SE7       29.74F
CHAMBERLAIN    SUNNY     45  32  60 NE3       29.73S
MITCHELL       SUNNY     47  35  63 SE7       29.76F
YANKTON        SUNNY     52  37  58 S12       29.78F
$$

ABBREVIATIONS USED IN REMARKS
   TC - TEMPERATURE IN CELSIUS
  WCI - WIND CHILL INDEX
   HX - HEAT INDEX
  VSB - VISIBILITY




USA.gov is the U.S. government's official web portal to all federal, state and local government web resources and services.